Regional Weather Roundup
Issued by NWS

Home | Current Version | Previous Version | Graphics & Text | Print | Product List | Glossary On
Versions: 1 2 3 4 5 6 7 8 9 10 11 12 13 14 15 16 17 18 19 20 21 22 23 24 25 26 27 28 29 30 31 32 33 34 35 36 37 38 39 40 41 42 43 44 45 46 47 48 49 50
788
ASUS44 KLIX 180701
RWRLA
LOUISIANA WEATHER ROUNDUP
NATIONAL WEATHER SERVICE NEW ORLEANS LA
200 AM CDT FRI APR 18 2014

NOTE: "FAIR" INDICATES FEW OR NO CLOUDS BELOW 12,000 FEET WITH NO
      SIGNIFICANT WEATHER AND/OR OBSTRUCTIONS TO VISIBILITY.
      SKY/WX - SKY CONDITION AND SIGNIFICANT WEATHER.
      TMP - AIR TEMPERATURE.    DP   - DEWPOINT TEMPERATURE.
      RH  - RELATIVE HUMIDITY.  PRES - PRESSURE.
      HX  - HEAT INDEX.         WCI  - WIND CHILL INDEX.

*  THESE STATIONS ARE NOT NWS OR FAA STATIONS AND ARE NOT UNDER
   NWS QUALITY CONTROL.

LAZ040-048-061>063-065-066-069-180800-
SOUTHEAST LOUISIANA

CITY           SKY/WX    TMP DP  RH WIND       PRES   REMARKS
N.O. AUDUBON     N/A     64 N/A N/A MISG        N/A
N.O. INTL ARPT CLOUDY    64  59  83 E14       30.08F
N.O. LAKEFRONT CLOUDY    63  60  90 E17       30.08F
N.O. DOWNTOWN* CLOUDY    63  55  77 NE7       30.09F
SLIDELL        CLOUDY    62  58  86 E8        30.08F
BATON ROUGE    CLOUDY    62  56  80 N3        30.12F
BOOTHVILLE     CLOUDY    63  61  93 NE9       30.05F
BELLE CHASSE   CLOUDY    63  58  83 NE12      30.07F
BOGALUSA*        N/A     64  57  79 E10G17    30.11F
GALLIANO*      NOT AVBL
NEW ROADS*     NOT AVBL
GONZALES*      CLOUDY    62  60  93 N3        30.10F
HAMMOND*       NOT AVBL
HOUMA*         NOT AVBL
PORT FOURCHON* PTSUNNY   64  61  88 NE13G21   30.06F

$$

LAZ041-044-053-054-180800-
SOUTHWEST LOUISIANA

CITY           SKY/WX    TMP DP  RH WIND       PRES   REMARKS
LAKE CHARLES   CLOUDY    57  54  89 NE5       30.14S
LAFAYETTE      CLOUDY    61  58  90 N6        30.13F
PATTERSON      CLOUDY    63  59  88 NE6         N/A
SALT POINT       N/A     65  61  87 CALM      30.09F
NEW IBERIA     CLOUDY    63  59  87 N6        30.12F
CHENAULT AIRPK NOT AVBL

$$

LAZ027-028-180800-
CENTRAL LOUISIANA

CITY           SKY/WX    TMP DP  RH WIND       PRES   REMARKS
FORT POLK      PTCLDY    54  51  90 NE5       30.15F
ALEXANDRIA INT CLOUDY    55  54  96 CALM      30.15F
ALEXANDRIA     CLOUDY    56  54  93 CALM      30.16F

$$

LAZ001-002-180800-
NORTHWEST LOUISIANA

CITY           SKY/WX    TMP DP  RH WIND       PRES   REMARKS
SHREVEPORT     PTCLDY    52  49  89 CALM      30.16F
BARKSDALE AFB  NOT AVBL
DTN SHREVEPORT PTCLDY    50  48  93 CALM      30.17F

$$

LAZ014-016-180800-
NORTHEAST LOUISIANA

CITY           SKY/WX    TMP DP  RH WIND       PRES   REMARKS
MONROE         CLOUDY    56  53  90 CALM      30.19F
TALLULAH       CLOUDY    60  54  80 N5        30.17F

$$




USA.gov is the U.S. government's official web portal to all federal, state and local government web resources and services.